Find Starlink 35165

NORAD ID: 65750 Int'l Des: 2025-216 Owner: SPXS Country: US Constellation: starlink operational
LEOCIRCULAR

Live-Position

3D-Globus wird geladen...

Über Starlink 35165

Beschreibung wird geladen...

Nächste Überflüge

Passes for default location (London). Set your location on the main map for personalized predictions.

Höhenverlauf

Loading altitude history...

Zweizeiliger Elementsatz

1 65750U 25216S 26106.42760089 .00005013 00000-0 18128-3 0 9992
2 65750 53.1564 157.4436 0000919 79.5020 280.6085 15.30195555 32295
Epoch: 16. Apr. 2026 • Age: 26 hours

Aktueller Status

Höhe 487.9 km
Geschwindigkeit 7.62 km/s
Subsatellitenpunkt -37.65°S, 23.28°W
Startdatum 25. Sept. 2025
Alter 0.5 years
Typ internet

Technische Details

Klassifizierung Payload
Masse 575.00 kg
Trockenmasse 530.00 kg
Gesamtmasse 575.00 kg
Länge 0.30 m
Durchmesser 4.10 m
Spannweite 29.00 m
Form Box + pan
Hersteller SPXS
Bus-Typ Starlink V2MO
Phasenstatus In Orbit
Besitzer/Staat SPXS/US

Most Searched